Location: Unspecified
(0.0000°N, 0.0000°E)
Time: 20:39:53
(UTC+00:00)

Vanguard 2 - All Passes

Search period start: 23 November 2017 00:00
Search period end: 03 December 2017 00:00
Orbit: 553 x 2939 km, 32.9° (Epoch: 23 November)

Date Brightness Start Highest point End Pass type
(mag) Time Alt. Az. Time Alt. Az. Time Alt. Az.
23 Nov - 01:53:21 10° N 02:00:28 16° NNE 02:09:03 10° ENE visible
23 Nov - 03:59:58 10° NW 04:13:58 47° NE 04:30:43 10° ESE visible
23 Nov - 06:10:03 10° WNW 06:27:17 80° SW 06:44:08 10° SE daylight
23 Nov - 08:25:28 10° W 08:40:42 34° SW 08:53:13 10° SSE daylight
23 Nov - 10:51:33 10° SW 10:54:50 11° SSW 10:57:49 10° S daylight
23 Nov - 17:27:29 10° SW 17:31:47 55° SE 17:35:39 10° ENE daylight
23 Nov - 19:38:16 10° NW 19:40:13 13° NNW 19:42:18 10° N visible
24 Nov - 02:10:28 10° NNW 02:19:27 22° NNE 02:30:47 10° ENE visible
24 Nov - 04:17:45 10° NW 04:32:26 59° NE 04:49:58 10° ESE visible
24 Nov - 06:28:41 10° WNW 06:45:45 65° SW 07:02:12 10° SE daylight
24 Nov - 08:45:57 10° W 08:59:30 27° SSW 09:10:46 10° SSE daylight
24 Nov - 15:38:07 10° S 15:40:59 14° SSE 15:43:26 10° SE daylight
24 Nov - 17:45:35 10° WSW 17:49:52 68° NW 17:53:49 10° NE daylight
25 Nov - 02:27:46 10° NNW 02:38:09 29° NE 02:51:43 10° E visible
25 Nov - 04:35:42 10° NW 04:50:49 74° NE 05:08:49 10° ESE visible
25 Nov - 06:47:40 10° WNW 07:04:18 52° SW 07:20:07 10° SE daylight
25 Nov - 09:07:05 10° WSW 09:18:34 21° SSW 09:28:15 10° SSE daylight
25 Nov - 15:55:02 10° SSW 15:59:32 24° SSE 16:03:03 10° E daylight
25 Nov - 18:04:10 10° W 18:07:57 31° NW 18:11:32 10° NNE visible
26 Nov - 00:43:15 10° NNE 00:44:05 10° NNE 00:44:58 10° NNE visible
26 Nov - 02:45:14 10° NNW 02:56:38 38° NE 03:11:58 10° E visible
26 Nov - 04:53:50 10° NW 05:09:13 90° SW 05:27:20 10° SE visible
26 Nov - 07:07:05 10° W 07:22:59 41° SSW 07:37:55 10° SSE daylight
26 Nov - 09:28:53 10° SW 09:37:55 16° SSW 09:45:43 10° SSE daylight
26 Nov - 14:06:20 10° S 14:07:29 10° SSE 14:08:35 10° SSE daylight
26 Nov - 16:12:36 10° SW 16:17:55 43° SSE 16:21:51 10° ENE daylight
26 Nov - 18:23:29 10° WNW 18:26:05 16° NNW 18:28:37 10° N visible
27 Nov - 00:57:35 10° N 01:03:02 15° NNE 01:09:40 10° ENE visible
27 Nov - 03:02:51 10° NW 03:14:59 49° NE 03:31:37 10° ESE visible
27 Nov - 05:12:13 10° WNW 05:27:41 74° SW 05:45:36 10° SE visible
27 Nov - 07:27:00 10° W 07:41:51 33° SSW 07:55:39 10° SSE daylight
27 Nov - 09:51:11 10° SW 09:57:34 13° SSW 10:03:13 10° S daylight
27 Nov - 14:22:01 10° SSW 14:26:24 16° SSE 14:29:53 10° ESE daylight
27 Nov - 16:30:36 10° SW 16:36:07 84° SE 16:40:10 10° ENE daylight
28 Nov - 01:14:16 10° N 01:21:41 21° NE 01:31:30 10° ENE visible
28 Nov - 03:20:36 10° NW 03:33:15 64° NE 03:50:47 10° ESE visible
28 Nov - 05:30:53 10° WNW 05:46:14 59° SW 06:03:40 10° SE daylight
28 Nov - 07:47:29 10° WSW 08:00:59 26° SSW 08:13:22 10° SSE daylight
28 Nov - 10:13:31 10° SSW 10:17:23 11° SSW 10:20:56 10° S daylight
28 Nov - 14:39:10 10° SSW 14:45:09 24° SSE 14:49:26 10° ESE daylight
28 Nov - 16:49:01 10° WSW 16:54:09 49° NW 16:58:04 10° NE daylight
29 Nov - 01:31:23 10° NNW 01:40:06 29° NE 01:52:21 10° E visible
29 Nov - 03:38:33 10° NW 03:51:32 80° NE 04:09:34 10° ESE visible
29 Nov - 05:49:54 10° W 06:04:57 47° SSW 06:21:37 10° SE daylight
29 Nov - 08:08:33 10° WSW 08:20:23 21° SSW 08:31:09 10° SSE daylight
29 Nov - 10:34:48 10° SSW 10:37:18 11° S 10:39:38 10° S daylight
29 Nov - 12:47:46 10° SSW 12:52:16 13° SSE 12:55:59 10° SE daylight
29 Nov - 14:56:45 10° SW 15:03:43 39° SSE 15:08:20 10° E daylight
29 Nov - 17:07:58 10° W 17:12:08 25° NW 17:15:32 10° NNE daylight
30 Nov - 01:48:45 10° NNW 01:58:19 39° NE 02:12:28 10° E visible
30 Nov - 03:56:43 10° WNW 04:09:54 82° SW 04:28:03 10° SE visible
30 Nov - 06:09:22 10° W 06:23:52 37° SSW 06:39:29 10° SSE daylight
30 Nov - 08:30:04 10° SW 08:40:04 17° SSW 08:49:06 10° SSE daylight
30 Nov - 10:53:41 10° SSW 10:57:10 11° S 11:00:20 10° SSE daylight
30 Nov - 13:04:47 10° SSW 13:11:24 19° SSE 13:16:17 10° ESE daylight
30 Nov - 15:14:42 10° SW 15:22:04 65° SSE 15:26:46 10° ENE daylight
30 Nov - 17:27:54 10° WNW 17:30:07 13° NW 17:32:09 10° N daylight
01 Dec - 00:02:20 10° NNE 00:05:58 13° NE 00:10:13 10° ENE visible
01 Dec - 02:06:19 10° NW 02:16:28 52° NE 02:31:59 10° ESE visible
01 Dec - 04:15:08 10° WNW 04:28:24 66° SW 04:46:17 10° SE visible
01 Dec - 06:29:19 10° W 06:43:00 30° SSW 06:57:20 10° SSE daylight
01 Dec - 08:51:42 10° SW 09:00:00 15° SSW 09:07:28 10° SSE daylight
01 Dec - 11:11:29 10° SSW 11:16:54 13° S 11:21:30 10° SSE daylight
01 Dec - 13:22:12 10° SSW 13:30:19 26° SSE 13:35:49 10° ESE daylight
01 Dec - 15:33:00 10° WSW 15:40:13 73° NW 15:44:51 10° NE daylight
02 Dec - 00:18:27 10° N 00:24:20 19° NE 00:32:12 10° ENE visible
02 Dec - 02:24:04 10° NW 02:34:36 68° NE 02:51:03 10° ESE visible
02 Dec - 04:33:51 10° WNW 04:47:06 52° SSW 05:04:21 10° SE visible
02 Dec - 06:49:47 10° WSW 07:02:25 24° SSW 07:15:15 10° SSE daylight
02 Dec - 09:12:49 10° SSW 09:20:03 14° S 09:26:32 10° SSE daylight
02 Dec - 11:29:05 10° SSW 11:36:26 16° SSE 11:42:12 10° SE daylight
02 Dec - 13:39:53 10° SW 13:49:03 38° SSE 13:54:48 10° E daylight
02 Dec - 15:51:43 10° WSW 15:58:11 41° NW 16:02:34 10° NNE daylight
